Miscellaneous Local Product
Issued by NWS North Platte, NE

Home | Current Version | Previous Version | Graphics & Text | Print | Product List | Glossary On
Versions: 1 2 3 4 5 6 7 8 9 10 11 12 13 14 15 16 17 18 19 20 21 22 23 24 25 26 27 28 29 30 31 32 33 34 35 36 37 38 39 40 41 42 43 44 45 46 47 48 49 50
679
AXUS43 KLBF 121810
MISLBF


WESTERN AND NORTH CENTRAL NEBRASKA HOURLY WEATHER ROUNDUP
NATIONAL WEATHER SERVICE NORTH PLATTE NE
1200 PM CST FRI FEB 12 2016

NOTE: "FAIR" INDICATES FEW OR NO CLOUDS BELOW 12,000 FEET WITH NO
SIGNIFICANT WEATHER AND/OR OBSTRUCTIONS TO VISIBILITY.

NOTE: STATIONS NOT REPORTING VARIABLES SUCH AS SKY/WEATHER OR
PRESSURE ARE PROVIDED BY THE NEBRASKA DEPARTMENT OF
ROADS...RAWS...AND APRS NETWORKS...AND ARE NOT UNDER
NATIONAL WEATHER SERVICE QUALITY CONTROL.

...OBSERVATIONS IN AND NEAR THE EASTERN PANHANDLE OF NEBRASKA...

CITY           SKY/WX    TMP DP  RH WIND       PRES   REMARKS
PINE RIDGE     CLOUDY    32  27  81 NE5       30.41R WCI  27
CHADRON        CLOUDY    36  29  75 E5        30.40S WCI  32
ALLIANCE       CLOUDY    31  29  92 NE7       30.37S WCI  24
SIDNEY         CLOUDY    34  30  85 E14       30.36R WCI  25
CRESCENT LAKE    N/A     32  29  90 E6G13       N/A  WCI  26
BIG SPRINGS      N/A     34  32  93 E6          N/A  WCI  29
$$

...OBSERVATIONS IN NORTH CENTRAL NEBRASKA...

CITY           SKY/WX    TMP DP  RH WIND       PRES   REMARKS
VALENTINE      CLOUDY    25  18  74 NE6       30.47R WCI  18
THEDFORD       CLOUDY    28  28  97 N7        30.44S FOG     WCI  21
AINSWORTH      CLOUDY    24  20  83 N9        30.46S WCI  15
O`NEILL        CLOUDY    22  17  83 N10       30.51R WCI  11
ORD            CLOUDY    24  21  88 NE10      30.49R WCI  14
BROKEN BOW     CLOUDY    28  25  88 N9        30.45R WCI  19
VALENTINE NWR    N/A     24  21  89 N6G13       N/A  WCI  17
BUTTE            N/A     18  15  86 N7G15       N/A  WCI   9
HALSEY           N/A     27  25  92 N6          N/A  WCI  21
CHAMBERS         N/A     26  14  60 N3          N/A
EWING            N/A     22  16  76 N8          N/A  WCI  13
$$

...OBSERVATIONS IN SOUTHWEST NEBRASKA AND FAR NORTHEAST COLORADO...

CITY           SKY/WX    TMP DP  RH WIND       PRES   REMARKS
HOLYOKE        FAIR      37  34  87 E10       30.39R WCI  30
IMPERIAL       CLOUDY    34  31  88 E9        30.41R WCI  27
OGALLALA       CLOUDY    33  32  94 E7        30.41S WCI  27
NORTH PLATTE   CLOUDY    36  28  73 NE8       30.42R WCI  30
MCCOOK         CLOUDY    34  30  85 E3        30.44R
LEXINGTON      CLOUDY    35  28  78 N10       30.44S WCI  27
PAXTON           N/A     34  32  93 NE5         N/A  WCI  30
STAPLETON        N/A     32  28  83 NE3         N/A
GOTHENBURG       N/A     36  28  73 N6          N/A  WCI  31
CALLAWAY         N/A     32  28  85 NE12        N/A  WCI  23
$$

...OBSERVATIONS IN CENTRAL LINCOLN COUNTY AREA...

CITY           SKY/WX    TMP DP  RH WIND       PRES   REMARKS
N.P. AIRPORT   CLOUDY    36  28  73 NE8       30.42R WCI  30
N.P. DOWNTOWN    N/A     35  30  82 NE8         N/A  WCI  28
N.P. SOUTHEAST   N/A     35  29  79 NE3         N/A
N.P. HILLCREST   N/A     35  30  82 NE10        N/A  WCI  27
$$

...SOME OBSERVATIONS FROM AROUND THE REGION...

CITY           SKY/WX    TMP DP  RH WIND       PRES   REMARKS
DENVER         MOSUNNY   46  28  49 VRB3      30.31S
LARAMIE        CLOUDY    42  27  55 NE7       30.31S
CHEYENNE       CLOUDY    46  26  45 SE3       30.31F
SCOTTSBLUFF    CLOUDY    35  29  78 E14       30.37S WCI  26
RAPID CITY     FOG       27  26  96 SE10      30.41S VSB 3/4 WCI  17
BISMARCK       CLOUDY    10  -1  61 E8        30.60F WCI  -2
PIERRE         CLOUDY    22  14  71 NE9       30.54R WCI  12
WINNER         CLOUDY    23  13  65 NE9       30.51S WCI  13
SIOUX FALLS    MOSUNNY   11   0  61 N15       30.53R WCI  -5
OMAHA          MOSUNNY   25  12  58 N21G28    30.51R WCI  11
GRAND ISLAND   CLOUDY    27  22  81 NE14      30.50R WCI  16
KANSAS CITY    MOSUNNY   34  21  59 NW14      30.43R WCI  25
WICHITA        CLOUDY    37  26  64 N15       30.44R WCI  28
OKLAHOMA CITY  MOSUNNY   56  34  43 N12       30.36R
LIBERAL        SUNNY     52  34  50 E8        30.39S
HAYS           CLOUDY    34  21  60 NE12      30.47R WCI  25
GOODLAND       CLOUDY    42  33  70 E14       30.38R
$$




USA.gov is the U.S. government's official web portal to all federal, state and local government web resources and services.